, OR

(GMT )
Tillamook

Weather History for KTMK - January, 2013

Change the Weather History Date:

Sunday, January 13, 2013

  Actual Average Record
Temperature  
Mean Temperature 33 °F -  
Max Temperature 42 °F - - ()
Min Temperature 24 °F - - ()
Degree Days  
Heating Degree Days 32    
Moisture  
Dew Point 28 °F    
Average Humidity 88    
Maximum Humidity 100    
Minimum Humidity 61    
Precipitation  
Precipitation 0.00 in - - ()
Sea Level Pressure  
Sea Level Pressure 30.44 in    
Wind  
Wind Speed 1 mph (SSE)    
Max Wind Speed 6 mph    
Max Gust Speed -    
Visibility 9 miles    
Events      
Averages and records for this station are not official NWS values.
T = Trace of Precipitation, MM = Missing Value Source: NWS Daily Summary

Daily Weather History Graph

Daily Weather History Graph

Search for Another Location

Airport or City:

Trip Planner

Search our weather history database for the weather conditions in past years. The results will help you decide how hot, cold, wet, or windy it might be!

Date:

Astronomy

Jan. 13, 2013 Rise Set
Actual Time 8:52 AM MST 5:56 PM MST
Civil Twilight 8:18 AM MST 6:29 PM MST
Nautical Twilight 7:42 AM MST 7:06 PM MST
Astronomical Twilight 7:06 AM MST 7:41 PM MST
Moon 9:45 AM MST (1/13) 8:51 PM MST (1/13)
Length of Visible Light 10h 10m
Length of Day
9h 04m
Waxing Crescent, 5% of the Moon is Illuminated
Jan 13
Waxing Crescent
Jan 18
First Quarter
Jan 26
Full
Feb 3
Last Quarter
Feb 10
New

Hourly Weather History & Observations

Time (MST) Temp. Windchill Dew Point Humidity Pressure Visibility Wind Dir Wind Speed Gust Speed Precip Events Conditions
12:15 AM 30.2 °F - 28.4 °F 93% 30.41 in 7.0 mi Calm Calm - N/A   Clear
12:35 AM 28.4 °F - 28.4 °F 100% 30.41 in 5.0 mi Calm Calm - N/A   Clear
12:55 AM 28.4 °F 24.6 °F 28.4 °F 100% 30.41 in 7.0 mi SE 3.5 mph - N/A   Clear
1:15 AM 28.4 °F 24.6 °F 28.4 °F 100% 30.41 in 7.0 mi ESE 3.5 mph - N/A   Clear
1:35 AM 30.2 °F - 28.4 °F 93% 30.41 in 10.0 mi Calm Calm - N/A   Clear
1:55 AM 26.6 °F - 26.6 °F 100% 30.41 in 7.0 mi Calm Calm - N/A   Clear
2:15 AM 26.6 °F - 26.6 °F 100% 30.42 in 7.0 mi Calm Calm - N/A   Clear
2:35 AM 28.4 °F 24.6 °F 26.6 °F 93% 30.42 in 1.0 mi SSE 3.5 mph - N/A   Mist
2:55 AM 28.4 °F - 28.4 °F 100% 30.42 in 4.0 mi Calm Calm - N/A   Clear
3:15 AM 26.6 °F - 26.6 °F 100% 30.43 in 10.0 mi Calm Calm - N/A   Clear
3:35 AM 26.6 °F - 26.6 °F 100% 30.43 in 7.0 mi Calm Calm - N/A   Clear
3:55 AM 28.4 °F 24.6 °F 28.4 °F 100% 30.43 in 10.0 mi SE 3.5 mph - N/A   Clear
4:15 AM 26.6 °F - 26.6 °F 100% 30.42 in 10.0 mi Calm Calm - N/A   Clear
4:35 AM 24.8 °F - 24.8 °F 100% 30.42 in 10.0 mi Calm Calm - N/A   Clear
4:55 AM 26.6 °F - 24.8 °F 93% 30.42 in 10.0 mi Calm Calm - N/A   Clear
5:15 AM 26.6 °F - 24.8 °F 93% 30.42 in 7.0 mi Calm Calm - N/A   Clear
5:35 AM 24.8 °F - 24.8 °F 100% 30.42 in 10.0 mi Calm Calm - N/A   Clear
5:55 AM 26.6 °F - 24.8 °F 93% 30.42 in 10.0 mi Calm Calm - N/A   Clear
6:15 AM 26.6 °F - 26.6 °F 100% 30.43 in 10.0 mi Calm Calm - N/A   Clear
6:35 AM 26.6 °F - 26.6 °F 100% 30.43 in 7.0 mi Calm Calm - N/A   Clear
6:55 AM 26.6 °F - 24.8 °F 93% 30.42 in 5.0 mi Calm Calm - N/A   Clear
7:15 AM 24.8 °F - 24.8 °F 100% 30.43 in 10.0 mi Calm Calm - N/A   Clear
7:35 AM 26.6 °F - 24.8 °F 93% 30.43 in 7.0 mi Calm Calm - N/A   Clear
7:55 AM 26.6 °F 22.6 °F 24.8 °F 93% 30.44 in 10.0 mi South 3.5 mph - N/A   Clear
8:15 AM 24.8 °F - 23.0 °F 93% 30.45 in 10.0 mi Calm Calm - N/A   Clear
8:35 AM 24.8 °F - 23.0 °F 93% 30.45 in 10.0 mi Calm Calm - N/A   Clear
8:55 AM 24.8 °F - 23.0 °F 93% 30.45 in 10.0 mi Calm Calm - N/A   Clear
9:15 AM 26.6 °F - 24.8 °F 93% 30.47 in 7.0 mi Calm Calm - N/A   Clear
9:35 AM 26.6 °F - 24.8 °F 93% 30.47 in 10.0 mi Calm Calm - N/A   Clear
9:55 AM 26.6 °F - 26.6 °F 100% 30.47 in 10.0 mi Calm Calm - N/A   Clear
10:15 AM 28.4 °F - 26.6 °F 93% 30.47 in 10.0 mi Calm Calm - N/A   Clear
10:35 AM 30.2 °F - 28.4 °F 93% 30.46 in 7.0 mi Calm Calm - N/A   Clear
10:55 AM 30.2 °F - 30.2 °F 100% 30.47 in 10.0 mi Calm Calm - N/A   Clear
11:15 AM 32.0 °F - 30.2 °F 93% 30.47 in 10.0 mi Calm Calm - N/A   Clear
11:35 AM 32.0 °F - 30.2 °F 93% 30.47 in 10.0 mi Calm Calm - N/A   Clear
11:55 AM 33.8 °F - 30.2 °F 87% 30.47 in 10.0 mi Calm Calm - N/A   Clear
12:15 PM 35.6 °F - 30.2 °F 81% 30.47 in 7.0 mi Calm Calm - N/A   Clear
12:35 PM 35.6 °F - 30.2 °F 81% 30.46 in 10.0 mi Calm Calm - N/A   Clear
12:55 PM 37.4 °F - 30.2 °F 75% 30.45 in 10.0 mi Calm Calm - N/A   Clear
1:35 PM 39.2 °F - 28.4 °F 65% 30.44 in 10.0 mi Calm Calm - N/A   Clear
1:55 PM 39.2 °F - 30.2 °F 70% 30.43 in 10.0 mi Calm Calm - N/A   Clear
2:15 PM 41.0 °F - 30.2 °F 65% 30.43 in 10.0 mi Calm Calm - N/A   Clear
2:35 PM 41.0 °F - 30.2 °F 65% 30.44 in 10.0 mi Calm Calm - N/A   Clear
2:55 PM 41.0 °F - 28.4 °F 61% 30.44 in 10.0 mi Calm Calm - N/A   Clear
3:15 PM 41.0 °F - 28.4 °F 61% 30.43 in 10.0 mi Calm Calm - N/A   Clear
3:35 PM 42.8 °F 40.1 °F 30.2 °F 61% 30.43 in 10.0 mi WNW 4.6 mph - N/A   Clear
3:55 PM 41.0 °F 37.1 °F 30.2 °F 65% 30.44 in 10.0 mi WNW 5.8 mph - N/A   Clear
4:15 PM 41.0 °F 39.0 °F 30.2 °F 65% 30.44 in 10.0 mi WNW 3.5 mph - N/A   Clear
4:35 PM 41.0 °F 39.0 °F 30.2 °F 65% 30.44 in 10.0 mi NW 3.5 mph - N/A   Clear
4:55 PM 41.0 °F - 30.2 °F 65% 30.44 in 10.0 mi Calm Calm - N/A   Clear
5:15 PM 41.0 °F - 30.2 °F 65% 30.42 in 10.0 mi Calm Calm - N/A   Clear
5:35 PM 41.0 °F - 30.2 °F 65% 30.43 in 10.0 mi Calm Calm - N/A   Clear
5:55 PM 41.0 °F - 30.2 °F 65% 30.43 in 10.0 mi Calm Calm - N/A   Clear
6:15 PM 37.4 °F - 32.0 °F 81% 30.45 in 10.0 mi Calm Calm - N/A   Clear
6:35 PM 35.6 °F 32.8 °F 32.0 °F 87% 30.45 in 10.0 mi SSE 3.5 mph - N/A   Clear
6:55 PM 35.6 °F 32.8 °F 32.0 °F 87% 30.45 in 10.0 mi SE 3.5 mph - N/A   Clear
7:15 PM 33.8 °F 29.6 °F 32.0 °F 93% 30.45 in 10.0 mi SE 4.6 mph - N/A   Clear
7:35 PM 33.8 °F 28.6 °F 30.2 °F 87% 30.46 in 10.0 mi SE 5.8 mph - N/A   Clear
7:55 PM 32.0 °F - 30.2 °F 93% 30.47 in 10.0 mi Calm Calm - N/A   Clear
8:15 PM 32.0 °F - 30.2 °F 93% 30.47 in 10.0 mi Calm Calm - N/A   Clear
8:35 PM 32.0 °F - 30.2 °F 93% 30.47 in 10.0 mi Calm Calm - N/A   Clear
8:55 PM 32.0 °F - 30.2 °F 93% 30.47 in 10.0 mi Calm Calm - N/A   Clear
9:15 PM 32.0 °F 28.7 °F 30.2 °F 93% 30.46 in 10.0 mi ESE 3.5 mph - N/A   Clear
9:35 PM 32.0 °F 28.7 °F 32.0 °F 100% 30.46 in 10.0 mi SE 3.5 mph - N/A   Clear
9:55 PM 30.2 °F - 30.2 °F 100% 30.47 in 10.0 mi Calm Calm - N/A   Clear
10:35 PM 30.2 °F - 30.2 °F 100% 30.48 in 7.0 mi Calm Calm - N/A   Clear
10:55 PM 30.2 °F 26.7 °F 28.4 °F 93% 30.47 in 10.0 mi SSE 3.5 mph - N/A   Clear
11:15 PM 30.2 °F 26.7 °F 30.2 °F 100% 30.47 in 10.0 mi SSE 3.5 mph - N/A   Clear
11:35 PM 30.2 °F 26.7 °F 30.2 °F 100% 30.47 in 10.0 mi SE 3.5 mph - N/A   Clear
11:55 PM 30.2 °F - 28.4 °F 93% 30.47 in 10.0 mi Calm Calm - N/A   Clear